Content
SEND FEEDBACK

Daily
Averages
Monthly
Summary
United States of America

NASHVILLE, NORTH CAROLINA


Home > North America > United States > North Carolina
Elevation: 190 feet     Latitude: 35 58N     Longitude: 077 58W

WEATHER
 
SELECT A DAY
Number of Records: 178,000;   Date Range: 1/1/95 - 7/20/14
 
SHARE

PRINT THIS DATA

[ ← Previous Day ]
WEATHER ALMANAC - JANUARY 23, 2013
[ Next Day → ]
[ °C ]   °F
Weather ElementAverageHighLow
Temperature28.2 °F37.9 °F (2:53 pm)17.1 °F (6:53 am)
Dewpoint9.9 °F16 °F (6:53 pm)1 °F (10:53 am)
Humidity50 %78 % (3:53 am)27 % (11:53 am)
Barometer30.28 in30.40 in (9:53 am)30.10 in (11:53 pm)
Wind Speed3.1 mph9.2 mph (3:53 pm)
Weather ElementAverage
Visibility10 mi
Wind DirectionESE (118.2 °)

Weather ElementTotal
Precipitation---
Heating Degree Days37.5 (Base 65)
Averaged from 22 records on January 23, 2013
WEATHER CONDITIONS BREAKOUT
WIND DIRECTION BREAKOUT
WEATHER BY HOUR - JANUARY 23, 2013
[ °C ]   °F
Local TimeTemperatureDewpointHumidityBarometerVisibilityWind DirectionWind SpeedGust SpeedPrecipitationEventsConditions
2:53 AM19.9 °F12.0 °F71 %30.32 in10.0 miCalmClear
3:53 AM18.0 °F12.0 °F78 %30.32 in10.0 miCalmClear
4:53 AM19.9 °F9.0 °F62 %30.34 in10.0 miCalmClear
5:53 AM19.0 °F10.0 °F68 %30.36 in10.0 miCalmClear
6:53 AM17.1 °F9.0 °F71 %30.36 in10.0 miCalmClear
7:53 AM18.0 °F10.9 °F74 %30.38 in10.0 miCalmClear
8:53 AM26.1 °F10.0 °F51 %30.39 in10.0 miCalmClear
9:53 AM28.9 °F3.9 °F35 %30.40 in10.0 miCalmClear
10:53 AM30.9 °F1.0 °F28 %30.39 in10.0 miNorth (360°)4.6 mphClear
11:53 AM33.1 °F1.9 °F27 %30.35 in10.0 miNNW (340°)4.6 mphClear
12:53 PM35.1 °F3.9 °F27 %30.30 in10.0 miWSW (240°)6.9 mphClear
1:53 PM37.0 °F6.1 °F28 %30.27 in10.0 miWSW (240°)6.9 mphClear
2:53 PM37.9 °F7.0 °F28 %30.25 in10.0 miSW (230°)6.9 mphClear
3:53 PM37.9 °F7.0 °F28 %30.24 in10.0 miWest (270°)9.2 mphScattered Clouds
4:53 PM37.9 °F10.0 °F32 %30.23 in10.0 miSW (230°)5.8 mphClear
5:53 PM30.9 °F12.9 °F47 %30.24 in10.0 miCalmClear
6:53 PM27.0 °F16.0 °F63 %30.22 in10.0 miCalmClear
7:53 PM26.1 °F16.0 °F66 %30.20 in10.0 miCalmClear
8:53 PM27.0 °F16.0 °F63 %30.18 in10.0 miSSE (160°)3.5 mphClear
9:53 PM30.9 °F14.0 °F50 %30.15 in10.0 miSouth (170°)6.9 mphClear
10:53 PM30.9 °F14.0 °F50 %30.13 in10.0 miSouth (180°)6.9 mphClear
11:53 PM30.9 °F15.1 °F52 %30.10 in10.0 miSouth (180°)6.9 mphClear
Hourly data recorded from KRWI, located miles away from Nashville, North Carolina







STORIES FROM OUR PARTNERS